This is the latest recevied weather packets stored in our database for station/object KJ5EHN. If no packets are shown the sender has not sent any weather packets the latest 10 day(s).
| Time | Temp. | Humidity | Pressure | Rain* | Wind** | Luminosity | Snow |
|---|---|---|---|---|---|---|---|
| 1777899608 | 18.33° C | 67% | 1012.9 hPa | 0 mm | - | - | - |
| 1777899305 | 17.78° C | 69% | 1013 hPa | 0 mm | - | - | - |
| 1777899003 | 17.78° C | 70% | 1012.9 hPa | 0 mm | - | - | - |
| 1777898699 | 17.22° C | 70% | 1013 hPa | 0 mm | - | - | - |
| 1777898396 | 17.22° C | 71% | 1013.1 hPa | 0 mm | - | - | - |
| 1777898094 | 17.22° C | 73% | 1012.9 hPa | 0 mm | - | - | - |
| 1777897790 | 17.22° C | 73% | 1013 hPa | 0 mm | - | - | - |
| 1777897487 | 17.22° C | 73% | 1012.8 hPa | 0 mm | - | - | - |
| 1777897182 | 16.67° C | 74% | 1012.8 hPa | 0 mm | - | - | - |
| 1777896878 | 16.11° C | 75% | 1012.7 hPa | 0 mm | - | - | - |
| 1777896576 | 15.56° C | 77% | 1012.7 hPa | 0 mm | - | - | - |
| 1777896273 | 15.56° C | 78% | 1012.7 hPa | 0 mm | - | - | - |
| 1777895972 | 15.56° C | 78% | 1012.5 hPa | 0 mm | - | - | - |
| 1777895669 | 15.56° C | 78% | 1012.7 hPa | 0 mm | - | - | - |
| 1777895366 | 15° C | 79% | 1012.6 hPa | 0 mm | - | - | - |
| 1777895064 | 15° C | 79% | 1012.7 hPa | 0 mm | - | - | - |
| 1777894760 | 15° C | 79% | 1012.5 hPa | 0 mm | - | - | - |
| 1777894457 | 15° C | 78% | 1012.6 hPa | 0 mm | - | - | - |
| 1777894155 | 15° C | 78% | 1012.6 hPa | 0 mm | - | - | - |
| 1777893852 | 15° C | 77% | 1012.9 hPa | 0 mm | - | - | - |
| 1777893548 | 15° C | 77% | 1012.8 hPa | 0 mm | - | - | - |
| 1777893244 | 15° C | 77% | 1012.5 hPa | 0 mm | - | - | - |
| 1777892941 | 15° C | 77% | 1012.6 hPa | 0 mm | - | - | - |
| 1777892638 | 15° C | 76% | 1012.8 hPa | 0 mm | - | - | - |
| 1777892333 | 15.56° C | 75% | 1012.6 hPa | 0 mm | - | - | - |
* Rain latest hour (hover to see other rain measurements)
** Current wind speed in m/s (hover to see current wind gust speed)